Showing default

OPS 8480 (TRANSIT 5B-6), 1420

Orbit data source: Space-Track

OPS 8480 (TRANSIT 5B-6), 1420 is a payload satellite owned by USN BuWeps (US) in LEO that was launched on Thu, 24 Jun 1965 UTC via a THOR ABLESTAR launch vehicle from the Air Force Western Test Range (AFWTR). Payload-class satellites include a variety of spacecraft equipped with specific instruments for various scientific and technological missions. These include communications satellites like Starlink; space stations such as the ISS; scientific satellites like the Hubble; Earth observation satellites from companies like Planet Labs, Umbra, and HawkEye 360; GPS; miniature CubeSats for education and research; and military/defense satellites.

Loading next visibility...
Identifier
1420, 1965-048A
Orbit
LEO
Country
Flag of USUS
Related business
Manufacturer
APL
Mission
Spacecraft
Bus & Motor
TRANSIT 5, Unknown motor
Mass
~54 kg wet, ~54 kg dry
Launch date (UTC)
1965-06-24 (60 years ago)
Launch vehicle
THOR ABLESTAR
Launch site
Air Force Western Test Range (AFWTR)
Object type
Payload
Rocket body
Debris
Shape & HBR
Unknown
Radar Cross Section
Large (>1 m²)

Expand to show TLE details & history
Last TLE update: 8 hours ago

TLE from 8 hours ago
0 OPS 8480 (TRANSIT 5B-6)
1 01420U 65048A   25291.27128487  .00000187  00000-0  26509-3 0  9999
2 01420  89.8765 289.1849 0075011  53.2811  72.6258 13.51845158970767
Epoch: 2025-10-18T06:30Z
TLE epoch observation values (Epoch: 2025-10-18T06:30:39.012Z)
Latitude
53.36494°
Longitude
-15.64757°
Altitude
1,057.989 km
Speed
7.336 km/s
True Right ascension
07h 16m 04s
True Declination
53° 12' 24"
Sunlit
Object was in daylight at epoch
Visualization orbit readout
Latitude
Unknown
Longitude
Unknown
Altitude
Unknown
Speed
Unknown
Apparent Right ascension
Unknown
Apparent Declination
Unknown
Sunlit
N/A
Visualization observer readout
Local Sidereal Time
09:36:17
Azimuth
Unknown
Elevation
Unknown
Doppler factor
Unknown
Orbital elements
Apogee altitude
1,118.338 km
Perigee altitude
1,006.711 km
Semi-major axis
7,440.661 km
Eccentricity
0.0075
Inclination
89.8765°
RAAN
289.1849°
Arg. of periapsis
53.2811°
True anomaly
73.44842°
Mean anomaly
72.6258°
Eccentric anomaly
73.03688°
Mean motion
3.38163 °/min
Orbital period
106.46 mins
BSTAR
0.00026509
Loading maneuver chart data...
Computing Atmospheric mass density...

Documentation

Showing up to 5 results
|